| time (UTC) | temp C | wind direction | speed KPH | gust KPH | rain 1hr cm | rain 24hr cm | rain mn cm | humidity % | barometer mb |
| 20260505024437 | 16 | 201 | 1.6 | 3.2 | 0.00 | 0.00 | 0.00 | 56 | 1005.9 |
| 20260505023934 | 16 | 192 | 1.6 | 1.6 | 0.00 | 0.00 | 0.00 | 55 | 1005.8 |
| 20260505023431 | 16 | 201 | 3.2 | 3.2 | 0.00 | 0.00 | 0.00 | 55 | 1005.7 |
| 20260505022928 | 16 | 200 | 0.0 | 1.6 | 0.00 | 0.00 | 0.00 | 55 | 1005.7 |
| 20260505022426 | 16 | 215 | 4.8 | 4.8 | 0.00 | 0.00 | 0.00 | 54 | 1005.6 |
| 20260505021922 | 16 | 209 | 4.8 | 8.0 | 0.00 | 0.00 | 0.00 | 54 | 1005.7 |
| 20260505021419 | 16 | 179 | 1.6 | 3.2 | 0.00 | 0.00 | 0.00 | 54 | 1005.7 |
| 20260505020914 | 16 | 191 | 3.2 | 4.8 | 0.00 | 0.00 | 0.00 | 54 | 1005.8 |
| 20260505020410 | 16 | 222 | 1.6 | 1.6 | 0.00 | 0.00 | 0.00 | 53 | 1005.8 |
| 20260505015907 | 16 | 222 | 1.6 | 3.2 | 0.00 | 0.00 | 0.00 | 54 | 1005.6 |
| 20260505015404 | 16 | 194 | 1.6 | 3.2 | 0.00 | 0.00 | 0.00 | 53 | 1005.4 |
| 20260505014902 | 16 | 170 | 8.0 | 11.3 | 0.00 | 0.00 | 0.00 | 52 | 1005.5 |
| 20260505014358 | 16 | 229 | 3.2 | 4.8 | 0.00 | 0.00 | 0.00 | 53 | 1005.5 |
| 20260505013855 | 17 | 187 | 1.6 | 3.2 | 0.00 | 0.00 | 0.00 | 52 | 1005.6 |
| 20260505013352 | 17 | 218 | 8.0 | 12.9 | 0.00 | 0.00 | 0.00 | 52 | 1005.2 |
| 20260505012851 | 17 | 246 | 3.2 | 3.2 | 0.00 | 0.00 | 0.00 | 51 | 1005.0 |
| 20260505012348 | 17 | 209 | 1.6 | 1.6 | 0.00 | 0.00 | 0.00 | 51 | 1005.1 |
| 20260505011844 | 17 | 202 | 6.4 | 12.9 | 0.00 | 0.00 | 0.00 | 50 | 1004.9 |
| 20260505011341 | 17 | 243 | 8.0 | 12.9 | 0.00 | 0.00 | 0.00 | 50 | 1004.9 |
| 20260505010837 | 17 | 225 | 1.6 | 3.2 | 0.00 | 0.00 | 0.00 | 50 | 1005.0 |
| 20260505010333 | 17 | 209 | 3.2 | 8.0 | 0.00 | 0.00 | 0.00 | 50 | 1004.8 |
| 20260505005829 | 17 | 244 | 11.3 | 14.5 | 0.00 | 0.00 | 0.00 | 49 | 1004.7 |
| 20260505005326 | 18 | 213 | 9.7 | 12.9 | 0.00 | 0.00 | 0.00 | 48 | 1004.6 |
| 20260505004824 | 18 | 220 | 8.0 | 9.7 | 0.00 | 0.00 | 0.00 | 48 | 1004.6 |
| 20260505004320 | 18 | 221 | 3.2 | 3.2 | 0.00 | 0.00 | 0.00 | 47 | 1004.5 |
| 20260505003817 | 18 | 224 | 1.6 | 1.6 | 0.00 | 0.00 | 0.00 | 47 | 1004.3 |
| 20260505003315 | 18 | 243 | 6.4 | 12.9 | 0.00 | 0.00 | 0.00 | 47 | 1004.1 |
| 20260505002810 | 18 | 209 | 1.6 | 3.2 | 0.00 | 0.00 | 0.00 | 45 | 1004.1 |
| 20260505002308 | 18 | 221 | 11.3 | 16.1 | 0.00 | 0.00 | 0.00 | 44 | 1003.6 |
| 20260505001806 | 18 | 188 | 0.0 | 0.0 | 0.00 | 0.00 | 0.00 | 44 | 1003.4 |
| 20260505001303 | 18 | 200 | 1.6 | 1.6 | 0.00 | 0.00 | 0.00 | 45 | 1003.5 |
| 20260505000800 | 18 | 224 | 1.6 | 3.2 | 0.00 | 0.00 | 0.00 | 42 | 1003.2 |
| 20260505000258 | 18 | 206 | 1.6 | 1.6 | 0.00 | 0.00 | 0.00 | 41 | 1003.3 |
| 20260504235754 | 18 | 221 | 1.6 | 1.6 | 0.00 | 0.00 | 0.00 | 41 | 1002.9 |
| 20260504235250 | 19 | 209 | 1.6 | 1.6 | 0.00 | 0.00 | 0.00 | 42 | 1003.0 |
| 20260504234748 | 20 | 211 | 4.8 | 8.0 | 0.00 | 0.00 | 0.00 | 40 | 1002.9 |
| 20260504234245 | 20 | 202 | 0.0 | 0.0 | 0.00 | 0.00 | 0.00 | 40 | 1002.8 |
| 20260504233741 | 20 | 206 | 0.0 | 1.6 | 0.00 | 0.00 | 0.00 | 40 | 1002.8 |
| 20260504233237 | 20 | 200 | 1.6 | 1.6 | 0.00 | 0.00 | 0.00 | 39 | 1002.6 |
| 20260504232734 | 20 | 222 | 3.2 | 3.2 | 0.00 | 0.00 | 0.00 | 38 | 1002.6 |
| 20260504232231 | 20 | 210 | 1.6 | 1.6 | 0.00 | 0.00 | 0.00 | 38 | 1002.7 |
| 20260504231728 | 21 | 221 | 3.2 | 3.2 | 0.00 | 0.00 | 0.00 | 37 | 1002.6 |
| 20260504231224 | 21 | 212 | 1.6 | 1.6 | 0.00 | 0.00 | 0.00 | 37 | 1002.5 |
| 20260504230720 | 21 | 220 | 3.2 | 3.2 | 0.00 | 0.00 | 0.00 | 37 | 1002.5 |
| 20260504230219 | 21 | 190 | 3.2 | 3.2 | 0.00 | 0.00 | 0.00 | 37 | 1002.3 |
| 20260504225718 | 21 | 326 | 3.2 | 3.2 | 0.00 | 0.00 | 0.00 | 36 | 1002.3 |
| 20260504225213 | 21 | 220 | 1.6 | 1.6 | 0.00 | 0.00 | 0.00 | 37 | 1002.0 |
| 20260504224711 | 21 | 183 | 1.6 | 1.6 | 0.00 | 0.00 | 0.00 | 37 | 1002.2 |
| 20260504224208 | 21 | 222 | 4.8 | 4.8 | 0.00 | 0.00 | 0.00 | 36 | 1001.9 |
| 20260504223704 | 21 | 260 | 3.2 | 3.2 | 0.00 | 0.00 | 0.00 | 35 | 1002.0 |
| 20260504223200 | 22 | 225 | 1.6 | 3.2 | 0.00 | 0.00 | 0.00 | 35 | 1002.0 |
| 20260504222657 | 22 | 211 | 4.8 | 9.7 | 0.00 | 0.00 | 0.00 | 34 | 1002.1 |
| 20260504222154 | 21 | 217 | 0.0 | 1.6 | 0.00 | 0.00 | 0.00 | 35 | 1002.2 |
| 20260504221651 | 21 | 205 | 4.8 | 4.8 | 0.00 | 0.00 | 0.00 | 35 | 1002.0 |
| 20260504221148 | 22 | 219 | 6.4 | 9.7 | 0.00 | 0.00 | 0.00 | 35 | 1002.1 |
| 20260504220644 | 22 | 198 | 8.0 | 11.3 | 0.00 | 0.00 | 0.00 | 34 | 1002.1 |
| 20260504220142 | 22 | 253 | 4.8 | 4.8 | 0.00 | 0.00 | 0.00 | 34 | 1002.2 |
| 20260504215638 | 21 | 264 | 9.7 | 12.9 | 0.00 | 0.00 | 0.00 | 34 | 1002.4 |
| 20260504215136 | 22 | 253 | 6.4 | 11.3 | 0.00 | 0.00 | 0.00 | 34 | 1002.2 |
| 20260504214631 | 22 | 201 | 4.8 | 4.8 | 0.00 | 0.00 | 0.00 | 33 | 1002.0 |
| 20260504214128 | 23 | 222 | 4.8 | 4.8 | 0.00 | 0.00 | 0.00 | 33 | 1002.3 |
| 20260504213624 | 23 | 193 | 1.6 | 1.6 | 0.00 | 0.00 | 0.00 | 33 | 1002.1 |
| 20260504213121 | 23 | 188 | 6.4 | 12.9 | 0.00 | 0.00 | 0.00 | 33 | 1002.1 |
| 20260504212618 | 22 | 221 | 4.8 | 4.8 | 0.00 | 0.00 | 0.00 | 33 | 1002.1 |
| 20260504212115 | 22 | 232 | 3.2 | 3.2 | 0.00 | 0.00 | 0.00 | 33 | 1001.9 |
| 20260504211612 | 22 | 202 | 6.4 | 9.7 | 0.00 | 0.00 | 0.00 | 33 | 1001.9 |
| 20260504211109 | 22 | 223 | 8.0 | 9.7 | 0.00 | 0.00 | 0.00 | 33 | 1002.1 |
| 20260504210606 | 23 | 222 | 9.7 | 16.1 | 0.00 | 0.00 | 0.00 | 32 | 1001.9 |
| 20260504205601 | 22 | 201 | 0.0 | 1.6 | 0.00 | 0.00 | 0.00 | 32 | 1002.2 |
| 20260504205058 | 23 | 203 | 0.0 | 1.6 | 0.00 | 0.00 | 0.00 | 32 | 1002.0 |
| 20260504204555 | 23 | 201 | 6.4 | 11.3 | 0.00 | 0.00 | 0.00 | 32 | 1001.9 |
| 20260504204055 | 23 | 327 | 8.0 | 9.7 | 0.00 | 0.00 | 0.00 | 31 | 1002.0 |
| 20260504203552 | 23 | 224 | 4.8 | 4.8 | 0.00 | 0.00 | 0.00 | 32 | 1001.9 |
| 20260504203050 | 22 | 196 | 1.6 | 1.6 | 0.00 | 0.00 | 0.00 | 32 | 1002.0 |
| 20260504202545 | 22 | 223 | 3.2 | 8.0 | 0.00 | 0.00 | 0.00 | 33 | 1002.0 |
| 20260504202042 | 22 | 236 | 8.0 | 16.1 | 0.00 | 0.00 | 0.00 | 32 | 1002.1 |
| 20260504201539 | 22 | 212 | 3.2 | 3.2 | 0.00 | 0.00 | 0.00 | 33 | 1002.2 |
| 20260504201037 | 23 | 183 | 12.9 | 17.7 | 0.00 | 0.00 | 0.00 | 31 | 1002.0 |
| 20260504200533 | 23 | 0 | 4.8 | 4.8 | 0.00 | 0.00 | 0.00 | 32 | 1001.9 |
| 20260504200030 | 22 | 240 | 6.4 | 9.7 | 0.00 | 0.00 | 0.00 | 32 | 1002.3 |
| 20260504195526 | 23 | 199 | 3.2 | 4.8 | 0.00 | 0.00 | 0.00 | 31 | 1002.3 |
| 20260504195023 | 22 | 220 | 4.8 | 4.8 | 0.00 | 0.00 | 0.00 | 32 | 1002.2 |
| 20260504194519 | 22 | 246 | 11.3 | 20.9 | 0.00 | 0.00 | 0.00 | 32 | 1002.0 |
| 20260504194014 | 21 | 193 | 8.0 | 11.3 | 0.00 | 0.00 | 0.00 | 32 | 1002.2 |
| 20260504193512 | 21 | 248 | 6.4 | 11.3 | 0.00 | 0.00 | 0.00 | 33 | 1002.1 |
| 20260504193010 | 22 | 214 | 3.2 | 3.2 | 0.00 | 0.00 | 0.00 | 33 | 1002.0 |
| 20260504192508 | 22 | 216 | 0.0 | 1.6 | 0.00 | 0.00 | 0.00 | 32 | 1002.2 |
| 20260504192006 | 22 | 186 | 8.0 | 11.3 | 0.00 | 0.00 | 0.00 | 31 | 1001.9 |
| 20260504191504 | 22 | 228 | 9.7 | 14.5 | 0.00 | 0.00 | 0.00 | 31 | 1002.1 |
| 20260504190959 | 22 | 221 | 4.8 | 8.0 | 0.00 | 0.00 | 0.00 | 32 | 1002.1 |
| 20260504190455 | 22 | 193 | 6.4 | 8.0 | 0.00 | 0.00 | 0.00 | 32 | 1002.4 |
| 20260504185952 | 22 | 294 | 9.7 | 12.9 | 0.00 | 0.00 | 0.00 | 31 | 1002.2 |
| 20260504185449 | 23 | 174 | 8.0 | 12.9 | 0.00 | 0.00 | 0.00 | 31 | 1002.5 |
| 20260504184945 | 22 | 235 | 8.0 | 12.9 | 0.00 | 0.00 | 0.00 | 32 | 1002.4 |
| 20260504184441 | 22 | 188 | 4.8 | 11.3 | 0.00 | 0.00 | 0.00 | 33 | 1002.3 |
| 20260504183936 | 22 | 324 | 4.8 | 8.0 | 0.00 | 0.00 | 0.00 | 33 | 1002.8 |
| 20260504183434 | 22 | 212 | 11.3 | 12.9 | 0.00 | 0.00 | 0.00 | 31 | 1002.8 |
| 20260504182932 | 22 | 202 | 4.8 | 8.0 | 0.00 | 0.00 | 0.00 | 32 | 1002.9 |
| 20260504182429 | 22 | 200 | 4.8 | 4.8 | 0.00 | 0.00 | 0.00 | 32 | 1002.9 |
| 20260504181926 | 23 | 290 | 16.1 | 27.4 | 0.00 | 0.00 | 0.00 | 31 | 1002.7 |
| 20260504181423 | 22 | 331 | 4.8 | 4.8 | 0.00 | 0.00 | 0.00 | 31 | 1002.6 |
| 20260504180922 | 22 | 197 | 8.0 | 11.3 | 0.00 | 0.00 | 0.00 | 32 | 1002.7 |
| 20260504180420 | 22 | 256 | 4.8 | 11.3 | 0.00 | 0.00 | 0.00 | 32 | 1002.7 |
| 20260504175918 | 22 | 203 | 6.4 | 9.7 | 0.00 | 0.00 | 0.00 | 32 | 1003.0 |
| 20260504175414 | 22 | 350 | 4.8 | 9.7 | 0.00 | 0.00 | 0.00 | 32 | 1002.8 |
| 20260504174912 | 22 | 202 | 3.2 | 4.8 | 0.00 | 0.00 | 0.00 | 33 | 1003.0 |
| 20260504174410 | 21 | 214 | 3.2 | 4.8 | 0.00 | 0.00 | 0.00 | 32 | 1003.0 |
| 20260504173907 | 21 | 284 | 6.4 | 11.3 | 0.00 | 0.00 | 0.00 | 33 | 1002.9 |
| 20260504173403 | 21 | 178 | 9.7 | 11.3 | 0.00 | 0.00 | 0.00 | 33 | 1003.1 |
| 20260504172901 | 21 | 300 | 6.4 | 9.7 | 0.00 | 0.00 | 0.00 | 33 | 1003.1 |
| 20260504172357 | 21 | 231 | 16.1 | 22.5 | 0.00 | 0.00 | 0.00 | 32 | 1003.2 |
| 20260504171852 | 21 | 239 | 9.7 | 12.9 | 0.00 | 0.00 | 0.00 | 33 | 1003.3 |
| 20260504171350 | 21 | 221 | 8.0 | 11.3 | 0.00 | 0.00 | 0.00 | 33 | 1003.4 |
| 20260504170847 | 21 | 224 | 3.2 | 3.2 | 0.00 | 0.00 | 0.00 | 35 | 1003.2 |
| 20260504170344 | 20 | 170 | 8.0 | 9.7 | 0.00 | 0.00 | 0.00 | 35 | 1003.2 |
| 20260504160302 | 19 | 299 | 14.5 | 20.9 | 0.00 | 0.00 | 0.00 | 35 | 1003.9 |
| 20260504150728 | 18 | 170 | 11.3 | 16.1 | 0.00 | 0.00 | 0.00 | 40 | 1004.5 |
| 20260504150224 | 18 | 205 | 11.3 | 14.5 | 0.00 | 0.00 | 0.00 | 40 | 1004.6 |
| 20260504141154 | 17 | 221 | 6.4 | 9.7 | 0.00 | 0.00 | 0.00 | 43 | 1005.4 |
| 20260504140650 | 16 | 244 | 4.8 | 4.8 | 0.00 | 0.00 | 0.00 | 44 | 1005.3 |
| 20260504140146 | 16 | 222 | 8.0 | 12.9 | 0.00 | 0.00 | 0.00 | 44 | 1005.4 |
| 20260504130614 | 15 | 231 | 3.2 | 4.8 | 0.00 | 0.00 | 0.00 | 48 | 1005.9 |
| 20260504130111 | 14 | 254 | 8.0 | 11.3 | 0.00 | 0.00 | 0.00 | 48 | 1005.9 |
| 20260504110502 | 7 | 196 | 0.0 | 0.0 | 0.00 | 0.00 | 0.00 | 72 | 1006.7 |
| 20260504100424 | 5 | 213 | 0.0 | 0.0 | 0.00 | 0.00 | 0.00 | 74 | 1006.6 |
| 20260504081817 | 5 | 209 | 0.0 | 0.0 | 0.00 | 0.00 | 0.00 | 72 | 1006.8 |
| 20260504081314 | 5 | 201 | 0.0 | 1.6 | 0.00 | 0.00 | 0.00 | 74 | 1006.4 |
| 20260504080810 | 5 | 208 | 0.0 | 1.6 | 0.00 | 0.00 | 0.00 | 73 | 1006.3 |
| 20260504080307 | 5 | 209 | 0.0 | 0.0 | 0.00 | 0.00 | 0.00 | 72 | 1006.5 |
| 20260504070235 | 4 | 207 | 0.0 | 1.6 | 0.00 | 0.00 | 0.00 | 80 | 1006.5 |
| 20260504060155 | 2 | 216 | 0.0 | 0.0 | 0.00 | 0.00 | 0.00 | 88 | 1006.2 |
| 20260504050623 | 0 | 217 | 0.0 | 0.0 | 0.00 | 0.00 | 0.00 | 91 | 1006.5 |
| 20260504050120 | 0 | 217 | 0.0 | 0.0 | 0.00 | 0.00 | 0.00 | 91 | 1006.3 |
| 20260504045617 | 0 | 217 | 0.0 | 0.0 | 0.00 | 0.00 | 0.00 | 90 | 1006.4 |
| 20260504045112 | 1 | 217 | 1.6 | 1.6 | 0.00 | 0.00 | 0.00 | 90 | 1006.4 |
| 20260504044610 | 1 | 218 | 0.0 | 0.0 | 0.00 | 0.00 | 0.00 | 90 | 1006.4 |
| 20260504044106 | 1 | 218 | 0.0 | 1.6 | 0.00 | 0.00 | 0.00 | 90 | 1006.5 |
| 20260504043604 | 1 | 219 | 0.0 | 0.0 | 0.00 | 0.00 | 0.00 | 90 | 1006.5 |
| 20260504043101 | 1 | 219 | 0.0 | 0.0 | 0.00 | 0.00 | 0.00 | 90 | 1006.3 |
| 20260504042558 | 1 | 219 | 1.6 | 1.6 | 0.00 | 0.00 | 0.00 | 90 | 1006.3 |
| 20260504042055 | 1 | 219 | 0.0 | 0.0 | 0.00 | 0.00 | 0.00 | 90 | 1006.4 |
| 20260504041550 | 1 | 219 | 0.0 | 0.0 | 0.00 | 0.00 | 0.00 | 90 | 1006.3 |
| 20260504041047 | 1 | 219 | 0.0 | 0.0 | 0.00 | 0.00 | 0.00 | 89 | 1006.2 |
| 20260504040544 | 1 | 219 | 0.0 | 0.0 | 0.00 | 0.00 | 0.00 | 89 | 1006.3 |
| 20260504040041 | 1 | 219 | 0.0 | 0.0 | 0.00 | 0.03 | 0.03 | 89 | 1006.2 |
| 20260504035538 | 1 | 219 | 0.0 | 0.0 | 0.00 | 0.03 | 0.03 | 89 | 1006.2 |
| 20260504035034 | 1 | 219 | 0.0 | 0.0 | 0.00 | 0.03 | 0.03 | 88 | 1006.2 |
| 20260504034533 | 1 | 219 | 0.0 | 0.0 | 0.00 | 0.03 | 0.03 | 88 | 1006.0 |
| 20260504034028 | 1 | 219 | 0.0 | 0.0 | 0.00 | 0.03 | 0.03 | 88 | 1006.0 |
| 20260504033527 | 1 | 218 | 1.6 | 1.6 | 0.00 | 0.03 | 0.03 | 88 | 1005.8 |
| 20260504033024 | 1 | 217 | 0.0 | 0.0 | 0.00 | 0.03 | 0.03 | 88 | 1006.0 |
| 20260504032521 | 2 | 217 | 0.0 | 0.0 | 0.00 | 0.03 | 0.03 | 87 | 1006.0 |
| 20260504032017 | 2 | 217 | 0.0 | 0.0 | 0.00 | 0.03 | 0.03 | 87 | 1006.0 |
| 20260504031514 | 1 | 218 | 0.0 | 1.6 | 0.00 | 0.03 | 0.03 | 86 | 1005.9 |
| 20260504031010 | 1 | 218 | 0.0 | 0.0 | 0.00 | 0.03 | 0.03 | 86 | 1006.1 |
| 20260504030508 | 2 | 218 | 0.0 | 0.0 | 0.00 | 0.03 | 0.03 | 85 | 1006.0 |
| 20260504030004 | 2 | 218 | 0.0 | 1.6 | 0.00 | 0.03 | 0.03 | 85 | 1006.0 |
| 20260504025501 | 2 | 218 | 0.0 | 0.0 | 0.00 | 0.03 | 0.03 | 85 | 1005.9 |
| 20260504024957 | 2 | 218 | 0.0 | 0.0 | 0.00 | 0.03 | 0.03 | 85 | 1005.9 |